Vertical_Velocity
-1 -1 -0 -0 -0 0 0 0 1 1 0 -0 -0 0 0 -1 -2 -0 0 -0 -1 -1 -1 -1 -1 -0 -1 -2 -1 -2 -2 -1 -1 -2 -3 -3 -2 -2 -2 -2 -1 -1 -1
-1 -1 -1 0 0 -1 -1 -1 -1 -1 -0 0 1 -0 -1 -1 -1 -1 0 0 -0 0 1 -0 -2 -1 -1 -1 0 -0 -2 -3 -1 -1 -3 -3 -2 -1 -1 -1 -0 0 1
1 1 1 -0 -0 0 0 0 -0 -0 -1 -2 -2 -0 -1 0 1 1 1 1 1 -0 -1 -0 -0 1 0 -0 -2 -1 1 0 -2 -1 0 1 1 1 0 1 -0 -1 -1
-1 -1 -0 -1 -1 -1 -1 -0 -1 -0 0 0 -0 -0 0 1 1 1 1 -0 -1 -0 -0 -0 -0 0 0 0 1 -1 -1 -2 -0 -1 -1 -0 -1 -0 -0 0 1 0 -1
0 -1 -1 -1 -1 1 1 0 -0 0 0 0 -0 0 0 0 -0 -0 -1 -1 0 -0 -0 -1 -0 0 -1 -2 -2 -1 -1 -0 -0 -1 0 -0 -1 -0 0 -1 -2 -2 -1
1 0 0 -0 1 1 1 -0 -0 0 0 0 0 -0 -0 -0 -0 -0 -0 -1 -2 -1 0 1 1 -1 -2 0 0 0 -1 -1 -2 -1 -1 -1 -3 -5 -4 -3 -4 -4 -4
-0 -0 -0 0 0 1 1 1 0 0 0 -0 -0 -0 -0 -0 -1 -1 -1 -1 -0 -1 -1 -2 -2 -1 2 -1 -1 -1 -2 -2 -1 -2 -2 -4 -3 -1 -3 -4 -3 -3 -3
1 1 -0 -0 -0 0 0 0 0 0 -0 -0 -1 -2 -1 -0 -1 -0 0 -0 -1 -1 -1 -2 -1 -0 -2 -2 -1 -1 -2 -3 -2 -4 -4 -2 -4 -4 -4 -4 -4 -4 -5
0 0 0 0 1 1 -0 -1 -0 -1 -1 -1 -0 0 -1 -1 0 0 0 -0 -0 -0 -0 -0 -1 -1 -0 0 0 -1 -3 -4 -5 -3 -2 -3 -4 -5 -6 -4 -5 -4 -7
3 1 1 1 0 1 0 -0 0 0 0 0 -1 -1 -0 0 -1 -0 0 -1 0 -1 -2 0 -1 -0 -1 -2 -4 -4 -4 -5 -5 -6 -7 -3 -4 -4 -5 -6 -8 -6 -6
0 1 -0 0 0 1 0 0 0 1 1 1 0 1 1 -0 -1 -1 3 -1 -2 -3 -1 -2 -2 -2 -2 -1 -3 -4 -5 -5 -2 1 -2 -4 -3 -5 -6 -5 -4 -3 -2
1 1 1 2 1 1 1 -0 -0 -1 -1 -0 -0 -1 -1 -0 -1 -2 -2 -1 -1 -1 -4 -2 -2 -1 -1 -2 -3 -1 2 -0 -2 -3 -3 -6 -6 -6 -4 -3 -3 -4 -4
-0 -0 -0 0 2 0 -1 -1 -1 -1 -0 -0 -2 -2 -1 -1 -1 -2 -2 -1 -1 -1 -3 -2 -3 -4 -1 1 4 3 -1 -5 -5 -3 -3 -5 -4 -3 -4 -2 -4 -6 -6
-1 -0 1 -1 -1 0 1 0 -2 -0 0 -1 -0 -1 -1 -1 -1 -1 -0 -0 -1 0 -0 -3 -1 -2 -2 -2 -1 -1 1 -4 -7 -5 -6 -6 -6 -5 -6 -7 -9 -6 -5
1 -0 -2 -0 0 0 1 1 0 0 0 -1 -0 -1 -1 -1 0 -0 -0 0 -1 -0 -4 -1 -2 -1 -1 -3 -1 1 2 2 -2 -4 -5 -8 -6 -2 -5 -4 -2 -2 -4
2 1 0 -2 -1 -1 -0 3 -0 1 -0 -1 -1 -1 -1 -1 -0 -1 -2 -1 -1 0 2 4 -6 -3 -5 -6 -4 -4 -6 -2 -8 -4 -5 -6 -6 -4 -1 -3 -5 -6 -2
2 0 1 1 -1 -1 0 1 4 -0 0 -2 -2 -1 -1 -0 1 2 2 2 1 -1 4 -3 2 -2 -4 3 -3 -6 -6 -3 -2 -7 -4 -6 -5 -5 -3 -3 -8 -8 -7
2 1 1 1 -0 -3 -1 1 1 5 1 1 -0 0 -1 -0 1 -0 4 -1 -0 2 2 6 -3 1 -3 1 -2 1 2 4 -3 -3 0 -1 -7 -3 -5 -8 -8 -6 -5
-0 -1 0 0 1 0 -2 2 0 2 4 1 1 0 1 0 -1 -1 2 1 -0 0 -1 0 6 -1 1 -2 5 -2 -2 -0 -2 -6 6 -4 -8 -6 -6 -5 -9 -13 3
1 -0 -0 0 2 2 1 -1 -2 1 -1 -0 -1 1 -1 -3 -2 -1 -1 -1 -1 -1 -2 -1 -3 -1 -3 2 -2 -7 9 1 -3 -1 2 -8 -8 -10 -1 -2 -12 -18 3
1 0 -1 -0 1 1 2 2 0 1 1 1 4 2 1 4 1 -1 -1 0 -1 -2 -3 -2 -4 -5 -6 -2 -3 -2 -5 -4 1 -9 3 -10 0 -19 -1 -0 -7 -4 -3
1 2 0 -3 -1 1 -2 -2 0 -1 -0 -1 0 1 -1 -1 -2 3 -2 -5 -1 -0 -2 -3 -4 -1 -3 -4 -5 -5 -6 2 -3 -8 6 -5 -10 -8 -6 -8 -6 -3 -4
-1 0 -0 0 1 -5 2 2 -0 -4 0 -1 0 -1 0 -4 -3 2 -3 -2 -1 -1 -2 -2 -1 -4 -4 -5 -0 3 -2 -2 -5 -6 -4 -6 -3 -15 -8 -11 -5 -1 2
-0 -0 -4 2 -1 -3 1 -1 2 -2 3 -1 1 1 2 1 -1 2 1 -0 -3 -1 -6 0 -1 -0 -2 -3 -3 -2 -4 -1 -3 -14 -11 -9 -1 -20 -3 -4 -3 -1 1
-0 1 3 1 5 -5 -1 -3 2 -2 -2 -1 3 12 1 6 1 0 -0 -0 -1 -2 -1 -4 -5 -5 -3 -4 -4 -2 -4 -4 3 -6 6 -12 -9 1 -9 -5 -3 -1 0
1 1 1 2 -0 -6 1 2 4 -0 6 6 3 2 1 0 -1 -1 1 -1 -2 -1 -1 -4 -5 -4 -0 -1 -4 -5 -6 -5 -8 10 1 3 -7 -13 0 -3 -3 -2 -1
Height
5848 5849 5850 5851 5851 5852 5853 5854 5854 5855 5855 5855 5855 5855 5855 5855 5855 5855 5855 5855 5854 5853 5851 5849 5848 5846 5843 5841 5838 5835 5831 5828 5825 5822 5817 5814 5810 5806 5801 5797 5793 5788 5784
5849 5850 5850 5851 5852 5852 5853 5854 5854 5854 5854 5854 5854 5854 5854 5854 5854 5854 5854 5853 5852 5850 5849 5847 5845 5843 5840 5837 5834 5832 5828 5824 5820 5817 5813 5809 5804 5799 5795 5790 5785 5780 5775
5848 5849 5850 5851 5852 5852 5853 5853 5853 5854 5854 5854 5854 5853 5853 5853 5853 5852 5852 5851 5850 5848 5846 5844 5841 5839 5836 5833 5831 5827 5824 5820 5816 5811 5807 5802 5797 5792 5787 5782 5776 5771 5765
5847 5848 5849 5850 5851 5852 5852 5853 5853 5853 5853 5853 5852 5852 5852 5851 5851 5851 5850 5849 5847 5845 5843 5841 5838 5835 5832 5830 5827 5823 5819 5815 5810 5805 5801 5796 5791 5785 5779 5773 5766 5760 5754
5846 5847 5848 5849 5850 5850 5851 5851 5852 5851 5851 5851 5851 5850 5850 5849 5849 5848 5847 5845 5843 5842 5840 5837 5834 5832 5829 5826 5822 5818 5813 5809 5804 5799 5794 5789 5783 5777 5770 5763 5756 5749 5741
5844 5845 5846 5847 5847 5848 5849 5849 5849 5849 5849 5849 5848 5848 5847 5847 5846 5845 5843 5842 5840 5837 5835 5833 5831 5827 5824 5820 5816 5811 5807 5802 5797 5792 5786 5780 5773 5766 5760 5752 5745 5738 5730
5841 5842 5843 5844 5845 5846 5846 5847 5847 5847 5846 5846 5846 5845 5844 5843 5842 5841 5839 5838 5835 5833 5831 5829 5826 5823 5819 5814 5809 5804 5799 5794 5789 5782 5775 5769 5762 5755 5748 5742 5734 5725 5717
5837 5839 5840 5841 5842 5842 5843 5843 5843 5843 5843 5843 5842 5841 5840 5840 5838 5837 5835 5834 5831 5828 5826 5823 5820 5816 5811 5807 5801 5796 5791 5785 5778 5771 5764 5757 5750 5743 5736 5727 5718 5710 5701
5834 5835 5836 5837 5838 5839 5839 5840 5840 5840 5840 5839 5838 5837 5836 5835 5833 5832 5830 5828 5826 5823 5820 5817 5813 5809 5804 5799 5794 5788 5781 5774 5767 5760 5752 5744 5736 5728 5720 5711 5702 5693 5684
5831 5831 5832 5833 5834 5835 5835 5835 5835 5835 5835 5834 5833 5832 5831 5830 5828 5827 5825 5823 5820 5817 5813 5810 5806 5801 5795 5790 5784 5777 5770 5762 5755 5747 5738 5730 5722 5713 5705 5694 5684 5674 5665
5825 5826 5828 5829 5830 5830 5830 5830 5830 5830 5830 5829 5829 5827 5825 5823 5822 5820 5819 5816 5813 5809 5805 5801 5797 5792 5786 5780 5773 5765 5757 5750 5743 5735 5726 5717 5708 5699 5688 5678 5668 5658 5650
5821 5822 5823 5824 5825 5825 5825 5825 5825 5825 5825 5824 5823 5821 5819 5817 5815 5813 5811 5808 5805 5801 5796 5791 5786 5781 5775 5768 5761 5755 5749 5741 5732 5723 5714 5705 5695 5684 5674 5664 5654 5644 5634
5816 5817 5818 5819 5819 5819 5819 5819 5819 5819 5819 5818 5816 5814 5813 5811 5809 5806 5803 5800 5796 5793 5788 5782 5776 5770 5765 5759 5753 5746 5738 5729 5719 5710 5701 5690 5680 5670 5660 5649 5639 5628 5616
5810 5811 5812 5812 5812 5813 5813 5813 5812 5813 5813 5811 5810 5808 5807 5805 5802 5799 5796 5793 5789 5785 5781 5775 5768 5762 5756 5750 5743 5735 5726 5717 5707 5697 5688 5677 5666 5656 5645 5634 5623 5611 5600
5803 5803 5804 5805 5805 5806 5806 5805 5805 5806 5805 5804 5803 5802 5799 5797 5795 5791 5788 5784 5780 5777 5771 5766 5760 5754 5747 5740 5732 5723 5714 5705 5694 5684 5673 5662 5652 5642 5631 5620 5608 5595 5579
5795 5796 5796 5797 5797 5798 5798 5799 5797 5798 5798 5797 5796 5793 5791 5789 5786 5783 5779 5774 5771 5767 5763 5758 5751 5744 5737 5729 5720 5711 5702 5692 5681 5671 5660 5649 5638 5628 5617 5605 5591 5576 5559
5788 5788 5788 5788 5789 5789 5789 5790 5791 5789 5789 5788 5786 5784 5782 5780 5777 5774 5770 5765 5761 5757 5753 5746 5739 5732 5725 5717 5708 5699 5690 5680 5669 5659 5648 5636 5626 5615 5603 5590 5574 5557 5537
5780 5779 5780 5780 5780 5780 5780 5781 5781 5781 5780 5779 5778 5776 5774 5772 5769 5765 5761 5755 5751 5746 5741 5735 5728 5721 5713 5705 5696 5688 5678 5667 5656 5646 5635 5623 5612 5600 5588 5572 5554 5535 5512
5770 5770 5770 5770 5770 5770 5770 5771 5772 5772 5771 5769 5768 5766 5764 5761 5758 5755 5750 5744 5739 5734 5728 5723 5716 5708 5699 5692 5684 5674 5664 5654 5642 5632 5621 5609 5597 5583 5570 5553 5533 5512 5490
5759 5759 5760 5760 5760 5760 5761 5762 5762 5762 5760 5759 5758 5755 5753 5750 5746 5742 5738 5732 5727 5721 5716 5710 5703 5695 5687 5679 5670 5661 5653 5640 5630 5619 5608 5594 5582 5568 5553 5535 5518 5494 5475
5749 5749 5749 5750 5751 5750 5750 5750 5750 5750 5749 5748 5747 5745 5741 5739 5735 5730 5725 5720 5715 5709 5703 5696 5689 5683 5674 5666 5657 5648 5638 5627 5616 5605 5597 5579 5569 5555 5537 5518 5497 5478 5467
5739 5739 5739 5739 5740 5740 5738 5739 5738 5738 5737 5736 5734 5732 5729 5726 5724 5719 5712 5708 5703 5696 5690 5684 5677 5670 5660 5652 5644 5633 5622 5614 5609 5595 5583 5567 5554 5538 5522 5501 5481 5466 5461
5727 5728 5729 5729 5728 5727 5727 5728 5726 5726 5725 5724 5722 5719 5715 5712 5709 5705 5700 5695 5690 5684 5678 5672 5664 5655 5647 5639 5629 5620 5609 5600 5590 5581 5572 5553 5538 5520 5502 5482 5467 5457 5456
5715 5715 5715 5716 5716 5715 5715 5715 5716 5714 5713 5711 5709 5706 5702 5699 5696 5692 5687 5682 5677 5671 5665 5658 5650 5642 5633 5624 5615 5606 5598 5588 5576 5563 5554 5541 5524 5500 5485 5469 5459 5455 5456
5703 5703 5703 5704 5703 5702 5702 5702 5703 5701 5700 5699 5696 5694 5688 5686 5683 5678 5674 5669 5663 5658 5651 5643 5636 5628 5618 5609 5602 5596 5587 5578 5569 5553 5542 5523 5509 5490 5474 5464 5459 5456 5456
5689 5690 5690 5691 5690 5690 5691 5690 5689 5688 5689 5687 5685 5682 5679 5675 5671 5666 5661 5656 5651 5645 5639 5630 5622 5613 5605 5596 5589 5582 5575 5566 5556 5546 5528 5514 5495 5480 5469 5462 5459 5456 5455